contact:dominique.lefevre@mio.osupytheas.fr, maurice.libes@osupytheas.fr, didier.mallarino@osupytheas.fr
Project:EMSO http://www.emso-fr.org/EMSO-France
Depth: 2436.0 m
Title:EMSO Ligure Ouest : Data MII capteur AQUADOPP
Date,Latitude,Longitude,X_East,Y_North,Z_Up,Amplitude_X,Amplitude_Y,Amplitude_Z,Batterie,SoundSpeed,Heading,Pitch,Roll,Pressure,TIS,Speed,Direction
, degrees North, degrees East, m.s-1, m.s-1,m.s-1, 1, 1, 1, Volt, m.s-1, degree, degree, degree, dbar, degree_C, m.s-1, degree
2022-02-01T00:04:03,42.805,6.029,-0.006,-0.07,-0.023,107.0,106.0,104.0,13.3,1505.2,331.5,-0.8,1.8,2470.415,13.28,0.07,184.9
2022-02-01T00:07:03,42.805,6.029,-0.003,-0.039,-0.009,105.0,105.0,103.0,13.3,1505.2,331.7,-0.8,1.8,2470.355,13.28,0.039,184.4
2022-02-01T00:10:03,42.805,6.029,0.004,-0.06,-0.016,107.0,105.0,103.0,13.4,1505.2,326.0,-0.8,1.8,2470.409,13.28,0.06,176.2
2022-02-01T00:13:03,42.805,6.029,0.001,-0.052,-0.007,105.0,106.0,104.0,13.4,1505.2,328.7,-0.8,1.8,2470.379,13.28,0.052,178.9
2022-02-01T00:16:03,42.805,6.029,0.018,-0.055,-0.023,107.0,105.0,103.0,13.3,1505.2,324.4,-0.7,1.8,2470.385,13.28,0.057,161.9
2022-02-01T00:19:03,42.805,6.029,0.02,-0.049,-0.026,107.0,105.0,103.0,13.4,1505.2,323.8,-0.7,1.8,2470.324,13.28,0.052,157.8
2022-02-01T00:22:03,42.805,6.029,0.022,-0.055,-0.024,106.0,105.0,104.0,13.4,1505.2,326.8,-0.7,1.8,2470.368,13.28,0.059,158.2
2022-02-01T00:25:03,42.805,6.029,0.013,-0.062,-0.015,106.0,105.0,103.0,13.4,1505.2,326.3,-0.7,1.8,2470.375,13.28,0.063,168.2
2022-02-01T00:28:03,42.805,6.029,0.006,-0.057,-0.032,107.0,105.0,103.0,13.3,1505.2,325.9,-0.8,1.8,2470.339,13.28,0.057,174.0
2022-02-01T00:31:03,42.805,6.029,0.009,-0.043,0.0,107.0,105.0,104.0,13.4,1505.2,324.6,-0.8,1.8,2470.328,13.28,0.043,168.2
2022-02-01T00:34:03,42.805,6.029,0.016,-0.065,-0.002,107.0,105.0,104.0,13.4,1505.2,328.4,-0.8,1.8,2470.316,13.28,0.066,166.2
2022-02-01T00:37:03,42.805,6.029,-0.004,-0.063,-0.028,105.0,106.0,104.0,13.4,1505.2,329.2,-0.8,1.8,2470.345,13.28,0.063,183.6
2022-02-01T00:40:03,42.805,6.029,0.012,-0.06,-0.02,107.0,107.0,104.0,13.4,1505.2,323.9,-0.8,1.9,2470.342,13.28,0.061,168.7
2022-02-01T00:43:03,42.805,6.029,0.013,-0.055,-0.004,107.0,107.0,104.0,13.4,1505.2,328.4,-0.8,1.8,2470.36,13.28,0.056,166.7
2022-02-01T00:46:03,42.805,6.029,0.0,-0.079,-0.059,108.0,107.0,104.0,13.3,1505.2,327.1,-0.8,1.8,2470.373,13.28,0.078,180.0
2022-02-01T00:49:03,42.805,6.029,0.0,-0.046,-0.017,107.0,106.0,104.0,13.4,1505.2,328.7,-0.8,1.8,2470.329,13.28,0.046,180.0
2022-02-01T00:52:03,42.805,6.029,0.003,-0.062,-0.021,106.0,106.0,104.0,13.4,1505.2,326.5,-0.8,1.8,2470.312,13.28,0.062,177.2
2022-02-01T00:55:03,42.805,6.029,0.0,-0.061,-0.035,108.0,106.0,104.0,13.4,1505.2,325.7,-0.7,1.8,2470.317,13.28,0.06,180.0
2022-02-01T00:58:03,42.805,6.029,0.014,-0.068,-0.027,107.0,106.0,105.0,13.4,1505.2,328.4,-0.8,1.8,2470.356,13.28,0.069,168.4
2022-02-01T01:04:03,42.805,6.029,0.005,-0.037,-0.01,110.0,109.0,105.0,13.4,1505.2,326.4,-0.7,1.8,2470.356,13.28,0.037,172.3
2022-02-01T01:07:02,42.805,6.029,-0.026,-0.073,-0.02,108.0,107.0,104.0,13.3,1505.2,327.7,-0.7,1.8,2470.319,13.28,0.077,199.6
2022-02-01T01:10:03,42.805,6.029,0.01,-0.068,-0.009,108.0,106.0,105.0,13.4,1505.2,329.5,-0.7,1.8,2470.327,13.28,0.068,171.6
2022-02-01T01:13:03,42.805,6.029,-0.019,-0.054,-0.037,108.0,107.0,104.0,13.4,1505.2,328.1,-0.8,1.8,2470.323,13.28,0.057,199.4
2022-02-01T01:16:03,42.805,6.029,-0.019,-0.048,0.005,107.0,107.0,104.0,13.4,1505.2,328.6,-0.8,1.8,2470.37,13.28,0.051,201.6
2022-02-01T01:19:03,42.805,6.029,0.003,-0.055,-0.006,109.0,105.0,105.0,13.4,1505.2,323.5,-0.8,1.8,2470.323,13.28,0.055,176.9
2022-02-01T01:22:03,42.805,6.029,0.023,-0.072,-0.046,107.0,106.0,105.0,13.4,1505.2,327.0,-0.8,1.8,2470.356,13.28,0.075,162.3
2022-02-01T01:25:03,42.805,6.029,-0.018,-0.049,-0.021,107.0,106.0,104.0,13.4,1505.2,331.2,-0.7,1.8,2470.336,13.28,0.052,200.2
2022-02-01T01:28:03,42.805,6.029,-0.003,-0.033,0.001,106.0,107.0,104.0,13.4,1505.2,331.4,-0.7,1.8,2470.337,13.28,0.033,185.2
2022-02-01T01:31:03,42.805,6.029,-0.014,-0.068,-0.013,107.0,106.0,105.0,13.4,1505.2,327.4,-0.7,1.8,2470.343,13.28,0.069,191.6
2022-02-01T01:34:03,42.805,6.029,0.012,-0.059,-0.029,106.0,106.0,104.0,13.4,1505.2,327.1,-0.7,1.8,2470.337,13.28,0.06,168.5
2022-02-01T01:37:03,42.805,6.029,-0.016,-0.046,-0.028,106.0,105.0,104.0,13.3,1505.2,329.2,-0.8,1.8,2470.29,13.28,0.048,199.2
2022-02-01T01:40:03,42.805,6.029,-0.025,-0.029,-0.032,107.0,106.0,104.0,13.3,1505.2,330.5,-0.7,1.8,2470.32,13.28,0.038,220.8
2022-02-01T01:43:03,42.805,6.029,-0.026,-0.039,-0.071,107.0,106.0,104.0,13.4,1505.2,329.1,-0.7,1.9,2470.304,13.28,0.046,213.7
2022-02-01T01:46:03,42.805,6.029,-0.003,-0.058,-0.024,107.0,106.0,104.0,13.4,1505.2,328.5,-0.8,1.8,2470.341,13.28,0.058,183.0
2022-02-01T01:49:03,42.805,6.029,-0.018,-0.038,-0.024,107.0,106.0,104.0,13.3,1505.2,330.7,-0.7,1.8,2470.315,13.28,0.042,205.3
2022-02-01T01:52:03,42.805,6.029,-0.007,-0.045,-0.017,107.0,106.0,104.0,13.4,1505.2,329.6,-0.8,1.9,2470.332,13.28,0.045,188.8
2022-02-01T01:55:03,42.805,6.029,-0.018,-0.032,0.003,106.0,107.0,105.0,13.3,1505.2,325.6,-0.8,1.9,2470.338,13.28,0.036,209.4
2022-02-01T01:58:03,42.805,6.029,-0.018,-0.083,-0.025,108.0,107.0,104.0,13.4,1505.2,328.7,-0.7,1.8,2470.329,13.28,0.084,192.2
2022-02-01T02:04:03,42.805,6.029,-0.025,-0.043,-0.011,108.0,107.0,104.0,13.3,1505.2,331.8,-0.8,1.8,2470.422,13.28,0.049,210.2
2022-02-01T02:07:03,42.805,6.029,-0.026,-0.029,-0.009,107.0,106.0,104.0,13.4,1505.2,330.8,-0.8,1.8,2470.35,13.28,0.038,221.9
2022-02-01T02:10:03,42.805,6.029,-0.008,-0.051,-0.025,107.0,106.0,104.0,13.4,1505.2,328.2,-0.8,1.8,2470.358,13.28,0.051,188.9
2022-02-01T02:13:03,42.805,6.029,-0.007,-0.066,-0.045,107.0,107.0,104.0,13.3,1505.2,328.4,-0.8,1.8,2470.339,13.28,0.066,186.1
2022-02-01T02:16:03,42.805,6.029,-0.003,-0.068,-0.06,107.0,107.0,105.0,13.3,1505.2,324.5,-0.8,1.9,2470.326,13.28,0.068,182.5
2022-02-01T02:19:03,42.805,6.029,0.013,-0.051,-0.046,108.0,106.0,106.0,13.4,1505.2,324.0,-0.7,1.8,2470.341,13.28,0.052,165.7
2022-02-01T02:22:03,42.805,6.029,-0.001,-0.047,-0.043,108.0,105.0,104.0,13.4,1505.2,325.4,-0.8,1.8,2470.345,13.28,0.047,181.2
2022-02-01T02:25:03,42.805,6.029,-0.014,-0.048,-0.006,107.0,105.0,104.0,13.4,1505.2,332.0,-0.7,1.8,2470.359,13.28,0.05,196.3
2022-02-01T02:28:03,42.805,6.029,0.005,-0.027,-0.022,107.0,106.0,104.0,13.4,1505.2,327.9,-0.7,1.8,2470.362,13.28,0.027,169.5
2022-02-01T02:31:03,42.805,6.029,0.001,-0.044,-0.026,107.0,106.0,105.0,13.3,1505.2,326.7,-0.8,1.8,2470.345,13.28,0.044,178.7
2022-02-01T02:34:03,42.805,6.029,-0.016,-0.049,-0.041,107.0,105.0,104.0,13.4,1505.2,327.6,-0.8,1.8,2470.356,13.28,0.051,198.1
2022-02-01T02:37:03,42.805,6.029,-0.008,-0.047,-0.032,107.0,104.0,103.0,13.4,1505.2,330.6,-0.8,1.8,2470.368,13.28,0.047,189.7
2022-02-01T02:40:03,42.805,6.029,0.005,-0.034,-0.03,106.0,104.0,104.0,13.4,1505.2,324.9,-0.8,1.8,2470.338,13.28,0.034,171.6
2022-02-01T02:43:03,42.805,6.029,-0.003,-0.063,-0.023,106.0,105.0,103.0,13.4,1505.2,326.0,-0.8,1.8,2470.365,13.28,0.063,182.7
2022-02-01T02:46:03,42.805,6.029,-0.025,-0.046,-0.057,105.0,106.0,104.0,13.4,1505.2,325.3,-0.8,1.8,2470.344,13.28,0.052,208.5
2022-02-01T02:49:03,42.805,6.029,-0.003,-0.057,-0.019,106.0,106.0,103.0,13.3,1505.2,326.7,-0.8,1.8,2470.358,13.28,0.057,183.0
2022-02-01T02:52:03,42.805,6.029,-0.027,-0.059,-0.018,108.0,104.0,102.0,13.4,1505.2,329.4,-0.8,1.8,2470.374,13.28,0.064,204.6
2022-02-01T02:55:03,42.805,6.029,-0.013,-0.075,-0.054,105.0,105.0,103.0,13.3,1505.2,328.7,-0.8,1.9,2470.364,13.28,0.076,189.8
2022-02-01T02:58:03,42.805,6.029,-0.034,-0.06,-0.037,106.0,105.0,103.0,13.3,1505.2,327.8,-0.8,1.8,2470.407,13.28,0.068,209.5
2022-02-01T03:04:03,42.805,6.029,-0.005,-0.049,-0.019,106.0,105.0,103.0,13.4,1505.2,327.7,-0.8,1.8,2470.408,13.28,0.049,185.8
2022-02-01T03:07:03,42.805,6.029,-0.003,-0.053,-0.028,106.0,105.0,104.0,13.4,1505.2,327.3,-0.7,1.9,2470.406,13.28,0.053,183.2
2022-02-01T03:10:03,42.805,6.029,-0.009,-0.031,-0.018,106.0,106.0,103.0,13.3,1505.2,327.2,-0.8,1.8,2470.398,13.28,0.032,196.2
2022-02-01T03:13:03,42.805,6.029,-0.003,-0.056,-0.041,106.0,106.0,103.0,13.4,1505.2,329.6,-0.8,1.8,2470.377,13.28,0.056,183.1
2022-02-01T03:16:03,42.805,6.029,0.004,-0.062,-0.035,106.0,105.0,104.0,13.3,1505.2,326.0,-0.8,1.8,2470.404,13.28,0.062,176.3
2022-02-01T03:19:03,42.805,6.029,-0.02,-0.043,-0.021,106.0,105.0,103.0,13.4,1505.2,327.6,-0.7,1.9,2470.38,13.28,0.047,204.9
2022-02-01T03:22:03,42.805,6.029,-0.009,-0.056,-0.002,106.0,105.0,104.0,13.4,1505.2,325.3,-0.8,1.8,2470.429,13.28,0.056,189.1
2022-02-01T03:25:03,42.805,6.029,0.0,-0.059,-0.017,106.0,104.0,104.0,13.4,1505.2,325.7,-0.8,1.8,2470.441,13.28,0.058,180.0
2022-02-01T03:28:03,42.805,6.029,-0.001,-0.057,-0.031,105.0,106.0,103.0,13.4,1505.2,329.7,-0.8,1.9,2470.429,13.28,0.057,181.0
2022-02-01T03:31:03,42.805,6.029,0.001,-0.057,-0.027,106.0,104.0,103.0,13.4,1505.2,328.2,-0.7,1.8,2470.433,13.28,0.057,179.0
2022-02-01T03:34:03,42.805,6.029,-0.018,-0.059,-0.05,105.0,106.0,104.0,13.4,1505.2,326.3,-0.8,1.8,2470.405,13.28,0.061,197.0
2022-02-01T03:37:03,42.805,6.029,-0.01,-0.059,-0.039,106.0,106.0,102.0,13.4,1505.2,325.0,-0.8,1.8,2470.458,13.28,0.059,189.6
2022-02-01T03:40:03,42.805,6.029,-0.038,-0.067,-0.021,107.0,106.0,104.0,13.4,1505.2,330.8,-0.8,1.8,2470.446,13.28,0.077,209.6
2022-02-01T03:43:03,42.805,6.029,-0.018,-0.057,-0.01,105.0,104.0,103.0,13.3,1505.2,324.7,-0.8,1.8,2470.439,13.28,0.059,197.5
2022-02-01T03:46:03,42.805,6.029,0.002,-0.063,-0.004,106.0,105.0,102.0,13.4,1505.2,331.4,-0.8,1.8,2470.461,13.28,0.063,178.2
2022-02-01T03:49:03,42.805,6.029,-0.006,-0.073,-0.013,105.0,105.0,103.0,13.4,1505.2,325.3,-0.8,1.9,2470.461,13.28,0.073,184.7
2022-02-01T03:52:03,42.805,6.029,-0.014,-0.052,-0.027,104.0,104.0,103.0,13.4,1505.2,330.4,-0.8,1.8,2470.474,13.28,0.053,195.1
2022-02-01T03:55:03,42.805,6.029,-0.027,-0.049,-0.023,106.0,104.0,103.0,13.3,1505.2,328.2,-0.8,1.8,2470.477,13.28,0.055,208.9
2022-02-01T03:58:03,42.805,6.029,-0.007,-0.051,-0.005,105.0,106.0,103.0,13.3,1505.2,331.4,-0.8,1.8,2470.441,13.28,0.051,187.8
2022-02-01T04:04:03,42.805,6.029,-0.019,-0.054,-0.065,106.0,103.0,103.0,13.4,1505.2,329.7,-0.8,1.8,2470.446,13.28,0.057,199.4
2022-02-01T04:07:03,42.805,6.029,-0.003,-0.064,0.012,105.0,105.0,103.0,13.3,1505.2,325.7,-0.8,1.8,2470.406,13.28,0.064,182.7
2022-02-01T04:10:03,42.805,6.029,-0.011,-0.054,-0.027,105.0,104.0,103.0,13.3,1505.2,326.8,-0.7,1.8,2470.448,13.28,0.055,191.5
2022-02-01T04:13:03,42.805,6.029,-0.026,-0.041,-0.003,105.0,105.0,102.0,13.4,1505.2,329.0,-0.8,1.8,2470.389,13.28,0.048,212.4
2022-02-01T04:16:03,42.805,6.029,0.019,-0.055,-0.034,105.0,103.0,103.0,13.3,1505.2,325.4,-0.8,1.8,2470.407,13.28,0.058,160.9
2022-02-01T04:19:03,42.805,6.029,-0.014,-0.056,-0.065,105.0,105.0,103.0,13.4,1505.2,330.9,-0.7,1.8,2470.37,13.28,0.057,194.0
2022-02-01T04:22:03,42.805,6.029,-0.016,-0.057,-0.041,105.0,104.0,103.0,13.4,1505.2,329.1,-0.8,1.8,2470.314,13.28,0.059,195.7
2022-02-01T04:25:03,42.805,6.029,-0.02,-0.062,-0.052,105.0,105.0,104.0,13.4,1505.2,327.9,-0.7,1.8,2470.351,13.28,0.065,197.9
2022-02-01T04:28:03,42.805,6.029,-0.013,-0.047,-0.005,105.0,105.0,102.0,13.4,1505.2,330.8,-0.7,1.8,2470.3,13.28,0.048,195.5
2022-02-01T04:31:03,42.805,6.029,-0.009,-0.066,-0.035,106.0,104.0,103.0,13.4,1505.2,327.2,-0.7,1.8,2470.271,13.28,0.066,187.8
2022-02-01T04:34:03,42.805,6.029,-0.018,-0.05,-0.029,105.0,106.0,103.0,13.4,1505.2,327.8,-0.8,1.8,2470.321,13.28,0.053,199.8
2022-02-01T04:37:03,42.805,6.029,-0.002,-0.044,-0.02,106.0,105.0,104.0,13.4,1505.2,325.2,-0.7,1.9,2470.315,13.28,0.044,182.6
2022-02-01T04:40:03,42.805,6.029,0.003,-0.052,-0.049,104.0,106.0,103.0,13.3,1505.2,326.3,-0.7,1.8,2470.312,13.28,0.052,176.7
2022-02-01T04:43:03,42.805,6.029,0.0,-0.063,-0.028,106.0,105.0,104.0,13.3,1505.2,324.0,-0.7,1.8,2470.302,13.28,0.062,180.0
2022-02-01T04:46:03,42.805,6.029,-0.021,-0.041,-0.031,106.0,105.0,102.0,13.4,1505.2,324.1,-0.8,1.8,2470.313,13.28,0.046,207.1
2022-02-01T04:49:03,42.805,6.029,-0.025,-0.054,-0.013,105.0,105.0,103.0,13.4,1505.2,329.6,-0.7,1.8,2470.31,13.28,0.059,204.8
2022-02-01T04:52:03,42.805,6.029,-0.021,-0.055,-0.004,106.0,104.0,104.0,13.4,1505.2,329.2,-0.8,1.8,2470.297,13.28,0.058,200.9
2022-02-01T04:55:03,42.805,6.029,-0.05,-0.054,-0.032,106.0,104.0,102.0,13.4,1505.2,324.7,-0.7,1.8,2470.35,13.28,0.073,222.8
2022-02-01T04:58:03,42.805,6.029,-0.029,-0.061,-0.048,106.0,106.0,102.0,13.3,1505.2,329.3,-0.7,1.8,2470.352,13.28,0.067,205.4
2022-02-01T05:04:03,42.805,6.029,-0.048,-0.062,-0.043,106.0,105.0,103.0,13.3,1505.2,324.2,-0.8,1.8,2470.435,13.28,0.078,217.7
2022-02-01T05:07:03,42.805,6.029,-0.031,-0.05,-0.002,105.0,104.0,103.0,13.3,1505.2,326.1,-0.7,1.8,2470.372,13.28,0.058,211.8
2022-02-01T05:10:03,42.805,6.029,-0.034,-0.054,-0.043,105.0,104.0,103.0,13.3,1505.2,330.4,-0.7,1.9,2470.382,13.28,0.063,212.2
2022-02-01T05:13:03,42.805,6.029,-0.002,-0.047,-0.033,106.0,105.0,102.0,13.4,1505.2,325.4,-0.8,1.8,2470.434,13.28,0.047,182.4
2022-02-01T05:16:03,42.805,6.029,-0.027,-0.054,-0.038,105.0,105.0,104.0,13.4,1505.2,326.9,-0.8,1.8,2470.44,13.28,0.06,206.6
2022-02-01T05:19:03,42.805,6.029,-0.009,-0.058,-0.037,106.0,104.0,103.0,13.4,1505.2,328.2,-0.8,1.8,2470.419,13.28,0.058,188.8
2022-02-01T05:22:03,42.805,6.029,-0.015,-0.048,-0.021,105.0,105.0,102.0,13.3,1505.2,326.5,-0.8,1.8,2470.418,13.28,0.05,197.4
2022-02-01T05:25:03,42.805,6.029,-0.004,-0.066,-0.029,105.0,105.0,103.0,13.4,1505.2,331.3,-0.7,1.8,2470.443,13.28,0.066,183.5
2022-02-01T05:28:03,42.805,6.029,-0.016,-0.062,-0.021,105.0,106.0,104.0,13.4,1505.2,325.7,-0.7,1.8,2470.49,13.28,0.064,194.5
2022-02-01T05:31:03,42.805,6.029,-0.017,-0.039,-0.046,106.0,104.0,103.0,13.4,1505.2,326.6,-0.8,1.8,2470.48,13.28,0.042,203.5
2022-02-01T05:34:03,42.805,6.029,-0.005,-0.062,-0.054,106.0,105.0,104.0,13.4,1505.2,332.0,-0.8,1.8,2470.482,13.28,0.062,184.6
2022-02-01T05:37:03,42.805,6.029,-0.007,-0.051,-0.026,105.0,106.0,103.0,13.3,1505.2,327.8,-0.7,1.8,2470.523,13.28,0.051,187.8
2022-02-01T05:40:03,42.805,6.029,-0.011,-0.065,-0.036,108.0,104.0,103.0,13.3,1505.2,323.9,-0.8,1.8,2470.515,13.28,0.065,189.6
2022-02-01T05:43:03,42.805,6.029,-0.023,-0.074,-0.039,106.0,105.0,103.0,13.4,1505.2,330.6,-0.7,1.8,2470.561,13.28,0.077,197.3
2022-02-01T05:46:03,42.805,6.029,-0.022,-0.06,-0.039,107.0,105.0,104.0,13.3,1505.2,327.5,-0.8,1.8,2470.55,13.28,0.063,200.1
2022-02-01T05:49:03,42.805,6.029,-0.013,-0.06,-0.021,106.0,105.0,103.0,13.4,1505.2,329.4,-0.7,1.8,2470.596,13.28,0.061,192.2
2022-02-01T05:52:03,42.805,6.029,-0.015,-0.054,-0.036,105.0,105.0,103.0,13.3,1505.2,330.0,-0.7,1.8,2470.556,13.28,0.056,195.5
2022-02-01T05:55:03,42.805,6.029,-0.006,-0.08,-0.043,106.0,105.0,103.0,13.4,1505.2,324.4,-0.7,1.8,2470.602,13.28,0.08,184.3
2022-02-01T05:58:03,42.805,6.029,0.001,-0.067,-0.015,105.0,105.0,104.0,13.4,1505.2,327.2,-0.8,1.9,2470.607,13.28,0.067,179.1
2022-02-01T06:04:03,42.805,6.029,-0.036,-0.063,-0.021,106.0,104.0,103.0,13.4,1505.2,324.1,-0.8,1.8,2470.658,13.28,0.072,209.7
2022-02-01T06:07:03,42.805,6.029,-0.01,-0.057,-0.013,105.0,105.0,104.0,13.4,1505.2,325.2,-0.8,1.8,2470.63,13.28,0.057,189.9
2022-02-01T06:10:03,42.805,6.029,-0.016,-0.054,-0.021,106.0,104.0,102.0,13.4,1505.2,331.4,-0.7,1.8,2470.614,13.28,0.056,196.5
2022-02-01T06:13:03,42.805,6.029,0.0,-0.068,-0.014,105.0,105.0,104.0,13.4,1505.2,324.5,-0.7,1.8,2470.629,13.28,0.067,180.0
2022-02-01T06:16:03,42.805,6.029,-0.01,-0.055,-0.049,106.0,104.0,104.0,13.3,1505.2,327.1,-0.7,1.8,2470.65,13.28,0.055,190.3
2022-02-01T06:19:03,42.805,6.029,-0.015,-0.061,-0.033,106.0,105.0,103.0,13.4,1505.2,328.9,-0.8,1.8,2470.633,13.28,0.062,193.8
2022-02-01T06:22:03,42.805,6.029,-0.021,-0.049,0.006,106.0,104.0,103.0,13.4,1505.2,329.8,-0.8,1.8,2470.62,13.28,0.053,203.2
2022-02-01T06:25:03,42.805,6.029,-0.017,-0.039,-0.056,106.0,105.0,103.0,13.3,1505.2,329.5,-0.8,1.8,2470.63,13.28,0.042,203.5
2022-02-01T06:28:03,42.805,6.029,-0.021,-0.084,-0.026,105.0,104.0,104.0,13.4,1505.2,326.9,-0.8,1.8,2470.632,13.28,0.086,194.0
2022-02-01T06:31:03,42.805,6.029,-0.023,-0.048,-0.007,105.0,104.0,103.0,13.4,1505.2,329.0,-0.8,1.8,2470.654,13.28,0.053,205.6
2022-02-01T06:34:03,42.805,6.029,-0.026,-0.062,-0.018,105.0,105.0,103.0,13.3,1505.2,329.4,-0.8,1.8,2470.651,13.28,0.067,202.7
2022-02-01T06:37:03,42.805,6.029,-0.025,-0.066,-0.063,105.0,105.0,102.0,13.4,1505.2,331.9,-0.8,1.9,2470.643,13.28,0.07,200.7
2022-02-01T06:40:03,42.805,6.029,-0.014,-0.062,-0.026,106.0,106.0,104.0,13.4,1505.2,324.5,-0.8,1.8,2470.644,13.28,0.063,192.7
2022-02-01T06:43:03,42.805,6.029,-0.043,-0.065,-0.041,105.0,105.0,103.0,13.4,1505.2,327.9,-0.7,1.8,2470.661,13.28,0.077,213.5
2022-02-01T06:46:03,42.805,6.029,-0.036,-0.075,-0.057,106.0,105.0,103.0,13.4,1505.2,325.7,-0.8,1.8,2470.651,13.28,0.083,205.6
2022-02-01T06:49:03,42.805,6.029,-0.016,-0.061,-0.051,106.0,104.0,103.0,13.4,1505.2,327.7,-0.7,1.8,2470.681,13.28,0.063,194.7
2022-02-01T06:52:03,42.805,6.029,-0.019,-0.079,0.005,106.0,105.0,104.0,13.4,1505.2,330.0,-0.8,1.8,2470.651,13.28,0.081,193.5
2022-02-01T06:55:03,42.805,6.029,-0.024,-0.067,-0.046,106.0,105.0,103.0,13.4,1505.2,326.4,-0.7,1.8,2470.646,13.28,0.071,199.7
2022-02-01T06:58:03,42.805,6.029,-0.029,-0.064,-0.031,105.0,106.0,102.0,13.4,1505.2,329.1,-0.7,1.8,2470.658,13.28,0.07,204.4
2022-02-01T07:04:03,42.805,6.029,-0.001,-0.067,-0.023,107.0,105.0,103.0,13.4,1505.2,329.4,-0.8,1.8,2470.661,13.28,0.067,180.9
2022-02-01T07:07:03,42.805,6.029,-0.028,-0.084,-0.016,107.0,104.0,104.0,13.4,1505.2,325.3,-0.8,1.8,2470.64,13.28,0.088,198.4
2022-02-01T07:10:03,42.805,6.029,-0.006,-0.072,-0.028,108.0,106.0,103.0,13.3,1505.2,326.0,-0.7,1.8,2470.643,13.28,0.072,184.8
2022-02-01T07:13:03,42.805,6.029,-0.042,-0.069,-0.036,106.0,106.0,104.0,13.4,1505.2,326.8,-0.8,1.8,2470.67,13.28,0.08,211.3
2022-02-01T07:16:03,42.805,6.029,-0.031,-0.071,-0.024,106.0,106.0,104.0,13.4,1505.2,327.8,-0.8,1.8,2470.622,13.28,0.077,203.6
2022-02-01T07:19:03,42.805,6.029,-0.016,-0.075,-0.024,106.0,105.0,103.0,13.4,1505.2,323.9,-0.7,1.8,2470.615,13.28,0.076,192.0
2022-02-01T07:22:03,42.805,6.029,-0.048,-0.056,-0.007,108.0,105.0,104.0,13.4,1505.2,323.8,-0.8,1.8,2470.644,13.28,0.073,220.6
2022-02-01T07:25:03,42.805,6.029,-0.042,-0.073,-0.042,106.0,106.0,104.0,13.4,1505.2,330.9,-0.7,1.8,2470.613,13.28,0.084,209.9
2022-02-01T07:28:03,42.805,6.029,-0.04,-0.071,-0.046,107.0,105.0,104.0,13.4,1505.2,325.5,-0.7,1.9,2470.611,13.28,0.081,209.4
2022-02-01T07:31:03,42.805,6.029,-0.032,-0.083,-0.044,106.0,105.0,104.0,13.4,1505.2,325.9,-0.7,1.8,2470.634,13.28,0.088,201.1
2022-02-01T07:34:03,42.805,6.029,-0.056,-0.075,-0.043,107.0,105.0,103.0,13.4,1505.2,328.4,-0.8,1.8,2470.622,13.28,0.093,216.7
2022-02-01T07:37:03,42.805,6.029,-0.023,-0.064,-0.023,107.0,105.0,103.0,13.4,1505.2,323.5,-0.8,1.8,2470.627,13.28,0.068,199.8
2022-02-01T07:40:03,42.805,6.029,-0.04,-0.091,-0.028,107.0,105.0,104.0,13.3,1505.2,327.9,-0.8,1.8,2470.595,13.28,0.099,203.7
2022-02-01T07:43:03,42.805,6.029,-0.051,-0.106,-0.029,106.0,105.0,104.0,13.4,1505.2,328.2,-0.8,1.8,2470.591,13.28,0.117,205.7
2022-02-01T07:46:03,42.805,6.029,-0.05,-0.063,-0.065,106.0,106.0,102.0,13.4,1505.2,329.1,-0.7,1.8,2470.59,13.28,0.08,218.4
2022-02-01T07:49:03,42.805,6.029,-0.03,-0.086,-0.035,107.0,106.0,104.0,13.4,1505.2,326.5,-0.7,1.8,2470.601,13.28,0.091,199.2
2022-02-01T07:52:03,42.805,6.029,-0.034,-0.074,-0.074,108.0,105.0,103.0,13.3,1505.2,326.9,-0.7,1.8,2470.592,13.28,0.081,204.7
2022-02-01T07:55:03,42.805,6.029,-0.008,-0.062,-0.024,106.0,107.0,103.0,13.3,1505.2,326.5,-0.8,1.8,2470.624,13.28,0.062,187.3
2022-02-01T07:58:03,42.805,6.029,-0.053,-0.066,-0.045,106.0,105.0,104.0,13.4,1505.2,328.2,-0.8,1.8,2470.621,13.28,0.084,218.8
2022-02-01T08:04:03,42.805,6.029,-0.031,-0.067,-0.051,106.0,107.0,104.0,13.4,1505.2,327.4,-0.8,1.8,2470.648,13.28,0.073,204.8
2022-02-01T08:07:03,42.805,6.029,-0.031,-0.078,-0.029,107.0,107.0,104.0,13.4,1505.2,327.3,-0.7,1.8,2470.616,13.28,0.083,201.7
2022-02-01T08:10:03,42.805,6.029,-0.026,-0.064,-0.008,107.0,106.0,104.0,13.4,1505.2,326.7,-0.7,1.8,2470.556,13.28,0.069,202.1
2022-02-01T08:13:03,42.805,6.029,-0.048,-0.074,-0.024,107.0,106.0,103.0,13.3,1505.2,330.7,-0.7,1.8,2470.639,13.28,0.088,213.0
2022-02-01T08:16:03,42.805,6.029,-0.031,-0.08,-0.024,107.0,106.0,104.0,13.4,1505.2,331.2,-0.8,1.8,2470.594,13.28,0.085,201.2
2022-02-01T08:19:03,42.805,6.029,-0.033,-0.074,-0.05,106.0,105.0,104.0,13.4,1505.2,331.1,-0.8,1.8,2470.607,13.28,0.081,204.0
2022-02-01T08:22:03,42.805,6.029,-0.069,-0.066,-0.052,106.0,107.0,104.0,13.4,1505.2,326.3,-0.8,1.8,2470.62,13.28,0.095,226.3
2022-02-01T08:25:03,42.805,6.029,-0.052,-0.061,-0.024,107.0,106.0,104.0,13.4,1505.2,327.8,-0.7,1.8,2470.65,13.28,0.08,220.4
2022-02-01T08:28:03,42.805,6.029,-0.06,-0.07,-0.021,107.0,106.0,105.0,13.4,1505.2,329.4,-0.8,1.8,2470.591,13.28,0.092,220.6
2022-02-01T08:31:03,42.805,6.029,-0.033,-0.08,-0.049,107.0,107.0,104.0,13.4,1505.2,331.1,-0.8,1.8,2470.597,13.28,0.086,202.4
2022-02-01T08:34:03,42.805,6.029,-0.039,-0.073,-0.006,107.0,106.0,104.0,13.3,1505.2,325.7,-0.7,1.9,2470.6,13.28,0.082,208.1
2022-02-01T08:37:03,42.805,6.029,-0.045,-0.066,-0.034,108.0,107.0,104.0,13.4,1505.2,331.6,-0.7,1.8,2470.605,13.28,0.079,214.3
2022-02-01T08:40:03,42.805,6.029,-0.023,-0.087,-0.044,108.0,106.0,104.0,13.4,1505.2,326.7,-0.8,1.8,2470.652,13.28,0.089,194.8
2022-02-01T08:43:03,42.805,6.029,-0.053,-0.103,-0.033,107.0,106.0,104.0,13.4,1505.2,327.0,-0.7,1.8,2470.648,13.28,0.115,207.2
2022-02-01T08:46:03,42.805,6.029,-0.05,-0.082,-0.029,107.0,106.0,104.0,13.4,1505.2,326.2,-0.7,1.8,2470.615,13.28,0.096,211.4
2022-02-01T08:49:03,42.805,6.029,-0.048,-0.048,-0.017,108.0,107.0,104.0,13.4,1505.2,330.3,-0.7,1.8,2470.617,13.28,0.067,225.0
2022-02-01T08:52:03,42.805,6.029,-0.047,-0.06,-0.037,109.0,106.0,104.0,13.4,1505.2,328.7,-0.8,1.8,2470.562,13.28,0.076,218.1
2022-02-01T08:55:03,42.805,6.029,-0.027,-0.065,-0.025,108.0,107.0,104.0,13.4,1505.2,326.3,-0.8,1.8,2470.592,13.28,0.07,202.6
2022-02-01T08:58:03,42.805,6.029,-0.049,-0.046,-0.047,108.0,106.0,104.0,13.4,1505.2,329.8,-0.8,1.8,2470.588,13.28,0.067,226.8
2022-02-01T09:04:03,42.805,6.029,-0.063,-0.06,-0.044,108.0,106.0,104.0,13.3,1505.2,325.5,-0.7,1.9,2470.615,13.28,0.086,226.4
2022-02-01T09:07:03,42.805,6.029,-0.073,-0.06,-0.025,107.0,106.0,105.0,13.4,1505.2,326.5,-0.7,1.8,2470.583,13.28,0.094,230.6
2022-02-01T09:10:03,42.805,6.029,-0.056,-0.06,-0.01,107.0,107.0,105.0,13.3,1505.2,327.8,-0.7,1.8,2470.595,13.28,0.082,223.0
2022-02-01T09:13:03,42.805,6.029,-0.061,-0.034,0.016,107.0,107.0,104.0,13.3,1505.2,326.4,-0.8,1.8,2470.544,13.28,0.069,240.9
2022-02-01T09:16:03,42.805,6.029,-0.037,-0.056,-0.041,110.0,107.0,104.0,13.4,1505.2,324.6,-0.8,1.8,2470.496,13.28,0.067,213.5
2022-02-01T09:19:03,42.805,6.029,-0.086,-0.068,-0.026,107.0,106.0,105.0,13.4,1505.2,329.9,-0.7,1.8,2470.519,13.28,0.109,231.7
2022-02-01T09:22:03,42.805,6.029,-0.06,-0.07,-0.023,109.0,106.0,104.0,13.4,1505.2,325.3,-0.8,1.8,2470.535,13.28,0.092,220.6
2022-02-01T09:25:03,42.805,6.029,-0.041,-0.047,-0.029,108.0,107.0,104.0,13.4,1505.2,329.6,-0.8,1.8,2470.506,13.28,0.062,221.1
2022-02-01T09:28:03,42.805,6.029,-0.046,-0.064,-0.043,108.0,105.0,103.0,13.4,1505.2,328.4,-0.7,1.8,2470.486,13.28,0.078,215.7
2022-02-01T09:31:03,42.805,6.029,-0.065,-0.07,-0.035,107.0,107.0,104.0,13.3,1505.2,329.4,-0.7,1.8,2470.504,13.28,0.095,222.9
2022-02-01T09:34:03,42.805,6.029,-0.072,-0.056,-0.031,107.0,106.0,103.0,13.4,1505.2,323.9,-0.7,1.8,2470.474,13.28,0.091,232.1
2022-02-01T09:37:03,42.805,6.029,-0.077,-0.066,-0.004,107.0,106.0,104.0,13.4,1505.2,330.5,-0.8,1.8,2470.418,13.28,0.101,229.4
2022-02-01T12:04:02,42.805,6.029,-0.072,-0.043,-0.03,109.0,106.0,105.0,13.4,1505.1,324.1,-0.8,1.8,2472.105,13.27,0.083,239.2
2022-02-01T12:07:03,42.805,6.029,-0.06,-0.056,-0.003,107.0,107.0,105.0,13.4,1505.2,326.3,-0.8,1.8,2471.712,13.28,0.082,227.0
2022-02-01T12:10:03,42.805,6.029,-0.067,-0.038,-0.009,108.0,107.0,103.0,13.4,1505.2,330.5,-0.8,1.8,2471.808,13.28,0.077,240.4
2022-02-01T12:13:03,42.805,6.029,-0.092,-0.025,-0.035,107.0,108.0,105.0,13.4,1505.2,325.8,-0.8,1.8,2471.593,13.28,0.095,254.8